STARLINK-2008 (47603 NORAD) Tracking and Keplerian Element Data

This shows tracking and keplerian element data for the satellite.

Feedback or suggestion? Click here.




ElementValue
Catalog47603
NameSTARLINK-2008
Epoch Orbit1059
Epoch Day99.91667824
Epoch Year2021
RAAN178.7102
Inclination53.0482
Eccentricity0.0001043
Argument of Perigee74.8221
Mean Anonmoly296.1571
Mean Motion15.06403708
Decay Rate-0.00029877
L11 47603U 21009BH 21099.91667824 -.00029877 00000-0 -19951-2 0 9998
L22 47603 53.0482 178.7102 0001043 74.8221 296.1571 15.06403708 10592

Live tracking and technical data element details for STARLINK-2008 (NORAD 47603). STARLINK-2008 can be tracked NOW for your location showing map with azimuth and elevation plus other details from your city location.

Track the satellite on the map from your city or location and see movement details for azimuth, elevation, latitude, longitude, range, height, and movement on the map or in text.







IsCatalogInMostPopularTable: catalog: 47603, numindb: 19
Update: records affected: 1



GetName: 47603 STARLINK-2008

Hit Count: updated at: Sat, 10 Apr 2021 19:25:00 GMT